User: anonymous   Login
Location: *
(46.3500°N, 10.9000°E)
Time: 01:06:35
(UTC+00:00)
Language:

Explorer 7 - Orbit

View from above orbital plane
View from above orbital plane
View from above satellite
View from above satellite

Ground track
Ground track

The orbit data is extracted from the following two-line orbital elements,

1 00022U 59009A   21110.58021923  .00001047  00000-0  10002-3 0  9990
2 00022  50.2833 100.6666 0138777 352.3651   7.5183 14.95497664516326
Epoch (UTC): 20 April 2021 13:55:30
Eccentricity: 0.0138777
inclination: 50.2833°
perigee height: 484 km
apogee height: 677 km
right ascension of ascending node: 100.6666°
argument of perigee: 352.3651°
revolutions per day: 14.95497664
mean anomaly at epoch: 7.5183°
orbit number at epoch: 51632

The dashed part of the orbit path shows where the satellite is in the earth's shadow,  

DLR